Location: Frizzleburg
(41.0764°N, 80.4548°W)
Time: 13:46:06
(UTC+00:00)

COSMOS 2487 - Pass Details

Date: 17 November 2019
Orbit: 444 x 448 km, 74.7° (Epoch: 07 December)

Event Time Altitude Azimuth Distance (km) Brightness Sun altitude
Rises 10:54:28 0° 201° (SSW) 2,424 6.0 -14.6°
Reaches altitude 10° 10:56:32 10° 203° (SSW) 1,558 5.0 -14.2°
Maximum altitude 10:59:57 73° 288° (WNW) 468 2.2 -13.6°
Drops below altitude 10° 11:03:24 10° 15° (NNE) 1,572 5.2 -12.9°
Sets 11:05:30 0° 17° (NNE) 2,448 6.2 -12.6°
